When you browse on this site, cookies collect data to enhance your experience and personalize the content and advertising you see.
Visit our Privacy Policy to learn more. By continuing to use the site, you agree to this use of cookies and data.
  • In Latvia
  • List of Countries
  • For 7 days
  • Water Temperature
  • Weather Map
  • Weather Widgets
  • user-avatar
    Login

    Hourly Weather Dankon

    Today, 21 January, Tuesday

    Time Temperature Precipitation Wind Pressure Humidity
    00:00 +19°C° 0 mm 1 mps 706 mmHg 85%
    01:00 +17°C° 0 mm 0 mps 706 mmHg 89%
    02:00 +17°C° 0 mm 0 mps 705 mmHg 91%
    03:00 +16°C° 0 mm 0 mps 705 mmHg 93%
    04:00 +16°C° 0 mm 0 mps 705 mmHg 94%
    05:00 +16°C° 0 mm 0 mps 705 mmHg 95%
    06:00 +16°C° 0 mm 0 mps 705 mmHg 96%
    07:00 +15°C° 0 mm 0 mps 705 mmHg 96%
    08:00 +19°C° 0 mm 0 mps 706 mmHg 81%
    09:00 +23°C° 0 mm 0 mps 707 mmHg 67%
    10:00 +26°C° 0 mm 0 mps 708 mmHg 52%
    11:00 +30°C° 0 mm 1 mps 707 mmHg 46%
    12:00 +31°C° 0 mm 1 mps 707 mmHg 41%
    13:00 +32°C° 0 mm 1 mps 706 mmHg 36%
    14:00 +32°C° 0 mm 2 mps 705 mmHg 36%
    15:00 +31°C° 0 mm 2 mps 705 mmHg 37%
    16:00 +31°C° 0 mm 2 mps 704 mmHg 38%
    17:00 +29°C° 0 mm 1 mps 704 mmHg 46%
    18:00 +26°C° 0 mm 1 mps 704 mmHg 54%
    19:00 +24°C° 0 mm 1 mps 704 mmHg 63%
    20:00 +23°C° 0 mm 1 mps 705 mmHg 66%
    21:00 +22°C° 0 mm 1 mps 705 mmHg 69%
    22:00 +21°C° 0 mm 1 mps 705 mmHg 72%
    23:00 +21°C° 0 mm 1 mps 705 mmHg 74%

    Tomorrow, 22 January, Wednesday

    Time Temperature Precipitation Wind Pressure Humidity
    00:00 +20°C° 0 mm 1 mps 705 mmHg 76%
    01:00 +20°C° 0 mm 1 mps 705 mmHg 78%
    02:00 +18°C° 0 mm 0 mps 705 mmHg 80%
    03:00 +17°C° 0 mm 0 mps 704 mmHg 81%
    04:00 +17°C° 0 mm 0 mps 704 mmHg 83%
    05:00 +17°C° 0 mm 0 mps 704 mmHg 84%
    06:00 +16°C° 0 mm 0 mps 705 mmHg 85%
    07:00 +16°C° 0 mm 0 mps 705 mmHg 87%
    08:00 +20°C° 0 mm 0 mps 706 mmHg 73%
    09:00 +24°C° 0 mm 0 mps 707 mmHg 59%
    10:00 +28°C° 0 mm 0 mps 707 mmHg 45%
    11:00 +31°C° 0 mm 1 mps 707 mmHg 41%
    12:00 +32°C° 0 mm 1 mps 706 mmHg 36%
    13:00 +34°C° 0 mm 2 mps 705 mmHg 32%
    14:00 +34°C° 0 mm 2 mps 704 mmHg 32%
    15:00 +34°C° 0 mm 2 mps 703 mmHg 32%
    16:00 +32°C° 0 mm 2 mps 703 mmHg 32%
    17:00 +30°C° 0 mm 1 mps 703 mmHg 40%
    18:00 +27°C° 0 mm 1 mps 703 mmHg 47%
    19:00 +24°C° 0 mm 1 mps 703 mmHg 55%
    20:00 +23°C° 0 mm 1 mps 703 mmHg 58%
    21:00 +22°C° 0 mm 1 mps 703 mmHg 61%
    22:00 +22°C° 0 mm 1 mps 704 mmHg 64%
    23:00 +21°C° 0 mm 1 mps 703 mmHg 66%

    Day after tomorrow, 23 January, Thursday

    Time Temperature Precipitation Wind Pressure Humidity
    00:00 +21°C° 0 mm 1 mps 703 mmHg 68%
    01:00 +20°C° 0 mm 1 mps 703 mmHg 69%
    02:00 +20°C° 0 mm 1 mps 703 mmHg 71%
    03:00 +17°C° 0 mm 0 mps 702 mmHg 73%
    04:00 +17°C° 0 mm 0 mps 702 mmHg 75%
    05:00 +17°C° 0 mm 0 mps 702 mmHg 76%
    06:00 +17°C° 0 mm 0 mps 703 mmHg 78%
    07:00 +16°C° 0 mm 0 mps 703 mmHg 79%
    08:00 +20°C° 0 mm 0 mps 704 mmHg 66%
    09:00 +26°C° 0 mm 1 mps 705 mmHg 53%
    10:00 +30°C° 0 mm 1 mps 705 mmHg 41%
    11:00 +31°C° 0 mm 1 mps 705 mmHg 37%
    12:00 +32°C° 0 mm 2 mps 704 mmHg 33%
    13:00 +34°C° 0 mm 2 mps 703 mmHg 29%
    14:00 +34°C° 0 mm 2 mps 702 mmHg 30%
    15:00 +34°C° 0 mm 2 mps 702 mmHg 30%
    16:00 +32°C° 0 mm 2 mps 701 mmHg 30%
    17:00 +30°C° 0 mm 2 mps 701 mmHg 39%
    18:00 +27°C° 0 mm 1 mps 701 mmHg 47%
    19:00 +24°C° 0 mm 1 mps 701 mmHg 55%
    20:00 +23°C° 0 mm 1 mps 702 mmHg 58%
    21:00 +22°C° 0 mm 1 mps 702 mmHg 61%
    22:00 +22°C° 0 mm 1 mps 702 mmHg 63%
    23:00 +21°C° 0 mm 1 mps 702 mmHg 65%

    24 January, Friday

    Time Temperature Precipitation Wind Pressure Humidity
    00:00 +21°C° 0 mm 1 mps 702 mmHg 66%
    01:00 +20°C° 0 mm 1 mps 702 mmHg 67%
    02:00 +18°C° 0 mm 0 mps 701 mmHg 69%
    03:00 +17°C° 0 mm 0 mps 701 mmHg 70%
    04:00 +17°C° 0 mm 0 mps 701 mmHg 72%
    05:00 +17°C° 0 mm 0 mps 701 mmHg 73%
    06:00 +17°C° 0 mm 0 mps 702 mmHg 74%
    07:00 +16°C° 0 mm 0 mps 702 mmHg 75%
    08:00 +20°C° 0 mm 0 mps 703 mmHg 62%
    09:00 +26°C° 0 mm 1 mps 704 mmHg 49%
    10:00 +30°C° 0 mm 1 mps 705 mmHg 36%
    11:00 +31°C° 0 mm 1 mps 704 mmHg 31%
    12:00 +32°C° 0 mm 2 mps 703 mmHg 27%
    13:00 +34°C° 0 mm 3 mps 702 mmHg 23%
    14:00 +34°C° 0 mm 3 mps 702 mmHg 23%
    15:00 +32°C° 0 mm 2 mps 701 mmHg 24%
    16:00 +32°C° 0 mm 2 mps 700 mmHg 25%
    17:00 +30°C° 0 mm 2 mps 700 mmHg 32%
    18:00 +27°C° 0 mm 1 mps 700 mmHg 38%
    19:00 +23°C° 0 mm 0 mps 700 mmHg 44%
    20:00 +22°C° 0 mm 0 mps 701 mmHg 48%
    21:00 +21°C° 0 mm 0 mps 701 mmHg 51%
    22:00 +20°C° 0 mm 0 mps 702 mmHg 54%
    23:00 +20°C° 0 mm 0 mps 701 mmHg 54%

    25 January, Saturday

    Time Temperature Precipitation Wind Pressure Humidity
    00:00 +20°C° 0 mm 0 mps 701 mmHg 54%
    01:00 +20°C° 0 mm 0 mps 701 mmHg 55%
    02:00 +18°C° 0 mm 0 mps 701 mmHg 59%
    03:00 +17°C° 0 mm 0 mps 700 mmHg 63%
    04:00 +16°C° 0 mm 0 mps 700 mmHg 68%
    05:00 +16°C° 0 mm 0 mps 700 mmHg 68%
    06:00 +16°C° 0 mm 0 mps 701 mmHg 67%
    07:00 +16°C° 0 mm 0 mps 701 mmHg 67%
    08:00 +19°C° 0 mm 0 mps 702 mmHg 56%
    09:00 +23°C° 0 mm 0 mps 703 mmHg 44%
    10:00 +29°C° 0 mm 1 mps 703 mmHg 32%
    11:00 +30°C° 0 mm 1 mps 703 mmHg 28%
    12:00 +31°C° 0 mm 2 mps 702 mmHg 24%
    13:00 +32°C° 0 mm 2 mps 701 mmHg 21%
    14:00 +32°C° 0 mm 2 mps 700 mmHg 21%
    15:00 +31°C° 0 mm 2 mps 700 mmHg 21%
    16:00 +31°C° 0 mm 2 mps 699 mmHg 21%
    17:00 +28°C° 0 mm 2 mps 699 mmHg 28%
    18:00 +25°C° 0 mm 1 mps 699 mmHg 34%
    19:00 +22°C° 0 mm 1 mps 700 mmHg 41%
    20:00 +19°C° 0 mm 0 mps 700 mmHg 43%
    21:00 +18°C° 0 mm 0 mps 701 mmHg 45%
    22:00 +17°C° 0 mm 0 mps 701 mmHg 47%
    23:00 +16°C° 0 mm 0 mps 701 mmHg 49%

    26 January, Sunday

    Time Temperature Precipitation Wind Pressure Humidity
    00:00 +15°C° 0 mm 0 mps 701 mmHg 51%
    01:00 +15°C° 0 mm 0 mps 700 mmHg 53%
    02:00 +14°C° 0 mm 0 mps 700 mmHg 55%
    03:00 +14°C° 0 mm 0 mps 700 mmHg 58%
    04:00 +13°C° 0 mm 0 mps 700 mmHg 61%
    05:00 +13°C° 0 mm 0 mps 700 mmHg 66%
    06:00 +13°C° 0 mm 1 mps 701 mmHg 71%
    07:00 +13°C° 0 mm 1 mps 701 mmHg 77%
    08:00 +18°C° 0 mm 1 mps 702 mmHg 67%
    09:00 +22°C° 0 mm 1 mps 703 mmHg 57%
    10:00 +24°C° 0 mm 0 mps 704 mmHg 47%
    11:00 +27°C° 0 mm 1 mps 703 mmHg 39%
    12:00 +29°C° 0 mm 1 mps 703 mmHg 32%
    13:00 +30°C° 0 mm 2 mps 702 mmHg 24%
    14:00 +30°C° 0 mm 2 mps 702 mmHg 25%
    15:00 +30°C° 0 mm 2 mps 701 mmHg 26%
    16:00 +29°C° 0 mm 2 mps 701 mmHg 28%
    17:00 +27°C° 0 mm 2 mps 701 mmHg 37%
    18:00 +24°C° 0 mm 1 mps 701 mmHg 46%
    19:00 +21°C° 0 mm 1 mps 701 mmHg 55%
    20:00 +20°C° 0 mm 1 mps 701 mmHg 62%
    21:00 +19°C° 0 mm 1 mps 701 mmHg 69%
    22:00 +16°C° 0 mm 1 mps 702 mmHg 76%
    23:00 +16°C° 0 mm 1 mps 702 mmHg 82%
    Show more